sat.trackr.live / text

‹ back to catalog

STARLINK-36871

NORAD 68023 · 2026-040J

PAYLOAD ACTIVE UNKNOWN

§ Identity

Operator
Country
US
Launch date
2026-03-01
Launch site
AFWTR
Launch vehicle
Mass (kg)
RCS (m²)

Purposes: comms

External: N2YO · Heavens-Above · Gunter

§ Orbital elements

Epoch: 2026-09-19T15:20:47.158944Z

Period
93.91 min
Inclination
97.2880°
Eccentricity
0.0002169
Mean motion
15.33450006 rev/d
Perigee alt
464.0 km
Apogee alt
467.0 km
Semi-major
6,843.7 km
B*
4.7079e-4
RAAN
209.9532°
Arg perigee
92.3035°
Mean anomaly
267.8456°
Rev number
3,118

§ Raw data

STARLINK-368711 68023U 26040J   26262.63943471  .00015157  00000+0  47079-3 0  99942 68023  97.2880 209.9532 0002169  92.3035 267.8456 15.33450006 31183

JSON: /api/v1/satellites/68023 · /tle

For live sub-satellite position, see the globe view (requires WebGL).

§ Visibility from observer

Set your observer location to see the next 7 days of passes ≥ 10°. The values pass through the URL so the page stays shareable.

No JS? Fill the form by hand. The geolocation button needs JavaScript.